Simultaneous Nadir Overpasses (SNOs) Predictions

Prediction of SNOs between GOES-15 and METOP-A Satellite Orbit:

Table of predicted SNOs for the next 14.0 days since TLE Epoch: 10/9/2018
Index Date Time (GOES-15) GOES-15 Lat,Lon METOP-A Lat,Lon Distance(km) Time Diff (sec)
1 10/10/2018 06:02:37 0.29,-135.58 1.20,-131.45 469.62 27
2 10/11/2018 18:19:39 -0.31,-135.63 -0.23,-136.03 44.51 80
3 10/14/2018 06:20:34 0.31,-135.55 0.31,-135.63 8.55 80
4 10/16/2018 18:18:40 -0.30,-135.57 -0.36,-135.18 44.19 80
5 10/18/2018 06:37:37 0.31,-135.50 -0.62,-139.79 487.82 80
6 10/19/2018 06:14:15 0.30,-135.48 0.45,-134.78 79.60 80
7 10/20/2018 18:33:03 -0.31,-135.50 0.57,-139.34 438.20 80
8 10/21/2018 18:15:01 -0.30,-135.49 -0.56,-134.35 129.62 80
9 10/23/2018 06:33:58 0.31,-135.41 -0.48,-138.94 402.42 80




NCC Satellite Simultaneous Nadir Overpasses (SNOs) Prediction Service
